This demonstration page uses our WeatherBlox Daily Observations layout. Learn more.

38.89511, -77.03637

Hourly Observations for September 7, 2016

Temp ( °F °C ) Dew Point ( °F °C ) Humidity (%) Winds ( mph kmh ) Pressure ( in mb ) Visibility ( mi km ) Precip ( " mm )
12:52 am 00:52 Mostly Cloudy 78 25.6 66 18.9 67 67 N 3 6 30.03 1017 10 16.0934 0 0
1:52 am 01:52 Mostly Cloudy 77 25 65 18.3 66 66 Calm 30.02 1017 10 16.0934 0 0
2:52 am 02:52 Partly Cloudy 76 24.4 66 18.9 72 72 Calm 30.01 1016 10 16.0934 0 0
3:52 am 03:52 Partly Cloudy 74 23.3 66 18.9 76 76 Calm 30.01 1016 10 16.0934 0 0
4:52 am 04:52 Mostly Cloudy 74 23.3 66 18.9 76 76 N 3 6 30.03 1017 10 16.0934 0 0
5:52 am 05:52 Mostly Cloudy 73 22.8 66 18.9 79 79 Calm 30.03 1017 10 16.0934 0 0
6:52 am 06:52 Mostly Cloudy 76 24.4 66 18.9 72 72 Calm 30.04 1017 10 16.0934 0 0
7:52 am 07:52 Mostly Cloudy 77 25 63 17.2 62 62 N 5 7 30.05 1018 10 16.0934 0 0
8:52 am 08:52 Partly Cloudy 81 27.2 62 16.7 53 53 N 6 9 30.06 1018 10 16.0934 0 0
9:52 am 09:52 Mostly Sunny 83 28.3 64 17.8 53 53 NNE 7 11 30.06 1018 10 16.0934 0 0
10:52 am 10:52 Mostly Sunny 85 29.4 63 17.2 48 48 SE 5 7 30.06 1018 10 16.0934 0 0
11:52 am 11:52 Mostly Sunny 90 32.2 67 19.4 47 47 NW 9 15 30.05 1018 10 16.0934 0 0
12:52 pm 12:52 Mostly Sunny 91 32.8 68 20 47 47 NW 12 19 30.04 1017 10 16.0934 0 0
1:52 pm 13:52 Partly Cloudy 92 33.3 70 21.1 49 49 WNW 8 13 30.02 1017 10 16.0934 0 0
2:52 pm 14:52 Mostly Cloudy 94 34.4 71 21.7 48 48 NNW 5 7 29.99 1016 10 16.0934 0 0
3:52 pm 15:52 Mostly Cloudy 93 33.9 69 20.6 46 46 N 13 20 29.97 1015 10 16.0934 0 0
4:52 pm 16:52 Mostly Cloudy 93 33.9 70 21.1 47 47 NNE 9 15 29.95 1014 10 16.0934 0 0
5:24 pm 17:24 Mostly Cloudy with Light Thunderstorms 90 32 73 23 59 59 N 10 17 29.97 1015 8 12.87472 0 0
5:52 pm 17:52 Mostly Cloudy with Light Thunderstorms 80 26.7 70 21.1 71 71 WNW 12 19 29.95 1014 7 11.26538 0.01 0.254
6:00 pm 18:00 Mostly Cloudy 81 27 68 20 66 66 VRB 3 6 29.94 1014 10 16.0934 0 0
6:52 pm 18:52 Mostly Cloudy with Light Rain 79 26.1 70 21.1 74 74 NW 12 19 29.98 1015 10 16.0934 0 0.0254
7:52 pm 19:52 Cloudy 79 26.1 72 22.2 79 79 S 5 7 30 1016 10 16.0934 0 0.0254
8:52 pm 20:52 Mostly Cloudy 77 25 74 23.3 90 90 SW 8 13 29.99 1016 10 16.0934 0.01 0.254
9:52 pm 21:52 Mostly Cloudy 77 25 74 23.3 90 90 SW 9 15 29.98 1015 10 16.0934 0 0
10:52 pm 22:52 Mostly Cloudy 77 25 72 22.2 85 85 SW 8 13 29.99 1016 10 16.0934 0 0
11:52 pm 23:52 Cloudy 76 24.4 72 22.2 88 88 SW 6 9 29.98 1015 10 16.0934 0 0

Powered by AerisWeather